Weather in Simikot

Nepal     29°59′55″N   81°51′21″E
temp.,
°C
wind,
m/s
gust,
m/s
humid.,
%
clouds,
%
prec.,
mm/h
press.,
hPa
HPBL,
m
25 january, tue
tue2523:45−17nw448995 1.3 102961
02:45−18nw449181 0.4 103064
05:45−18nnw449082 0.6 102961
08:45−15nnw447814 0.0 1024116
11:45−9sse23587 0.0 1015996
14:45−9se337783 0.3 1012900
17:45−12e229497 1.2 1016179
20:45−14nw129493 0.7 102233
26 january, wed
wed2623:45−18nw448784 0.9 102959
02:45−19nw449180 0.1 103053
05:45−21nnw448768 0.3 103144
08:45−16nnw447841 0.0 1025142
11:45−11sse226023 0.0 1016957
14:45−10se3381100 0.5 1012803
17:45−12se1293100 1.8 1015171
20:45−13nnw2295100 1.3 102098
27 january, thu
thu2723:45−15nw3394100 2.2 102398
02:45−15nw3494100 0.8 1022116
05:45−17nw4488100 1.1 102576
08:45−15nnw447587 0.1 1024140
11:45−10ssw115952 0.1 1016928
14:45−9se326673 0.2 10121098
17:45−15n328418 0.3 102211
20:45−19nnw55722 0.0 103246
28 january, fri
fri2823:45−20nnw66660 0.0 103457
02:45−20nnw67620 0.0 103463
05:45−20nnw77560 0.0 103368
08:45−13nnw56630 0.0 1024121
11:45−5wnw23490 0.0 1014495
14:45−4s11562 0.0 1012578
17:45−12nnw43763 0.0 102014
20:45−14nnw65520 0.0 102843
29 january, sat
sat2923:45−14nnw55480 0.0 102745
02:45−14nnw65470 0.0 102743
05:45−15nnw55490 0.0 102742
08:45−9nnw45600 0.0 102177
11:45−3ese11440 0.0 1015521
14:45−2se22532 0.0 1013780
17:45−10n33732 0.0 101712
20:45−13nnw55671 0.0 102744